Tracking 30101 objects as of 14-Dec-2024
HD Live streaming from Space Station
objects crossing your sky now

STARLINK-31248

Track STARLINK-31248 now!
10-day predictions
STARLINK-31248 is classified as:


NORAD ID: 58840
Int'l Code: 2024-017Q
Perigee: 489.4 km
Apogee: 491.4 km
Inclination: 53.2 °
Period: 94.3 minutes
Semi major axis: 6861 km
RCS: Unknown
Launch date: January 24, 2024
Source: United States (US)
Launch site: AIR FORCE WESTERN TEST RANGE (AFWTR)
Your satellite tracking list
Your tracking list is empty




NASA's NSSDC Master Catalog

Two Line Element Set (TLE):
1 58840U 24017Q   24348.47538224  .00001023  00000-0  50283-4 0  9993
2 58840  53.1583 152.1896 0001454 100.1643 259.9520 15.27522276 50920
Source of the keplerian elements: AFSPC